DAL422 PHNL-KLAX

Flight info

Callsign DAL422
Flight time 4h 51m
Altitude 33000
Route MKK5 CODDY EBBER R577 ELKEY RYDRR2
Aircraft A21N/M-SDE2E3FGHIRWXY/LB1

Departure

Time 2026-04-26 16:50
Airport Daniel K. Inouye International Airport (PHNL)

Arrival

Time 2026-04-26 21:41
Airport Los Angeles International Airport (KLAX)
Time Latitude Longitude Altitude Speed Heading
2026-04-26 16:30 21.32933 -157.91751 30 ft 0 kts 72°
2026-04-26 16:41 21.32928 -157.91768 29 ft 4 kts 76°
2026-04-26 16:41 21.32924 -157.91797 29 ft 4 kts 90°
2026-04-26 16:41 21.32929 -157.91823 29 ft 4 kts 127°
2026-04-26 16:42 21.32942 -157.91831 29 ft 1 kts 189°
2026-04-26 16:42 21.32946 -157.91831 29 ft 1 kts 189°
2026-04-26 16:43 21.32934 -157.91833 29 ft 3 kts 189°
2026-04-26 16:44 21.32910 -157.91837 29 ft 5 kts 189°
2026-04-26 16:44 21.32864 -157.91845 29 ft 8 kts 189°
2026-04-26 16:44 21.32797 -157.91867 29 ft 12 kts 213°
2026-04-26 16:44 21.32736 -157.91937 29 ft 13 kts 238°
2026-04-26 16:45 21.32692 -157.92025 29 ft 14 kts 257°
2026-04-26 16:45 21.32691 -157.92131 29 ft 16 kts 270°
2026-04-26 16:45 21.32692 -157.92258 30 ft 18 kts 270°
2026-04-26 16:45 21.32693 -157.92392 30 ft 18 kts 270°
2026-04-26 16:46 21.32693 -157.92527 30 ft 18 kts 270°
2026-04-26 16:46 21.32693 -157.92663 30 ft 18 kts 270°
2026-04-26 16:46 21.32726 -157.92792 30 ft 18 kts 296°
2026-04-26 16:46 21.32743 -157.92927 30 ft 20 kts 270°
2026-04-26 16:47 21.32743 -157.93088 30 ft 23 kts 270°
2026-04-26 16:47 21.32743 -157.93270 30 ft 25 kts 270°
2026-04-26 16:47 21.32742 -157.93458 30 ft 25 kts 270°
2026-04-26 16:47 21.32742 -157.93647 30 ft 26 kts 270°
2026-04-26 16:48 21.32742 -157.93839 30 ft 26 kts 270°
2026-04-26 16:48 21.32742 -157.94032 30 ft 26 kts 270°
2026-04-26 16:48 21.32742 -157.94225 30 ft 20 kts 270°
2026-04-26 16:48 21.32711 -157.94323 30 ft 13 kts 199°
2026-04-26 16:49 21.32617 -157.94327 30 ft 14 kts 180°
2026-04-26 16:49 21.32529 -157.94287 30 ft 19 kts 104°
2026-04-26 16:49 21.32527 -157.93924 30 ft 82 kts 90°
2026-04-26 16:49 21.32527 -157.93075 30 ft 146 kts 90°
2026-04-26 16:50 21.32524 -157.91791 170 ft 186 kts 89°
2026-04-26 16:50 21.32359 -157.90439 1001 ft 184 kts 111°
2026-04-26 16:50 21.31538 -157.89317 1493 ft 204 kts 141°
2026-04-26 16:50 21.30172 -157.88742 1910 ft 220 kts 162°
2026-04-26 16:51 21.28615 -157.88367 2222 ft 240 kts 164°
2026-04-26 16:51 21.26959 -157.87856 2581 ft 252 kts 148°
2026-04-26 16:51 21.25652 -157.86645 3201 ft 250 kts 121°
2026-04-26 16:51 21.25034 -157.84912 3839 ft 253 kts 100°
2026-04-26 16:52 21.24762 -157.83034 4511 ft 256 kts 97°
2026-04-26 16:52 21.24595 -157.81779 4981 ft 258 kts 98°
2026-04-26 16:52 21.24228 -157.79212 5831 ft 264 kts 99°
2026-04-26 16:52 21.23926 -157.77251 6426 ft 269 kts 100°
2026-04-26 16:53 21.23613 -157.75290 7031 ft 272 kts 100°
2026-04-26 16:53 21.23287 -157.73282 7646 ft 275 kts 100°
2026-04-26 16:53 21.23034 -157.71236 8199 ft 279 kts 89°
2026-04-26 16:53 21.23199 -157.69150 8750 ft 283 kts 82°
2026-04-26 16:54 21.23468 -157.67047 9315 ft 286 kts 82°
2026-04-26 16:54 21.23743 -157.64927 9859 ft 290 kts 82°
2026-04-26 16:54 21.24016 -157.62758 10229 ft 299 kts 82°
2026-04-26 16:54 21.24293 -157.60497 10447 ft 313 kts 82°
2026-04-26 16:55 21.24579 -157.58127 10642 ft 328 kts 82°
2026-04-26 16:55 21.24877 -157.55642 10829 ft 342 kts 82°
2026-04-26 16:55 21.25183 -157.53064 11014 ft 356 kts 82°
2026-04-26 16:55 21.25501 -157.50379 11188 ft 370 kts 82°
2026-04-26 16:56 21.26165 -157.44740 11707 ft 389 kts 82°
2026-04-26 16:56 21.26508 -157.41853 12146 ft 392 kts 82°
2026-04-26 16:56 21.26850 -157.38951 12649 ft 393 kts 82°
2026-04-26 16:57 21.27192 -157.36037 13106 ft 395 kts 82°
2026-04-26 16:57 21.27537 -157.33106 13586 ft 397 kts 81°
2026-04-26 16:57 21.28232 -157.27204 14420 ft 401 kts 81°
2026-04-26 16:58 21.28582 -157.24230 14835 ft 403 kts 82°
2026-04-26 16:58 21.28810 -157.22252 15083 ft 405 kts 82°
2026-04-26 16:58 21.29619 -157.15215 15975 ft 413 kts 82°
2026-04-26 16:59 21.29968 -157.12152 16397 ft 415 kts 81°
2026-04-26 16:59 21.30699 -157.05969 17179 ft 421 kts 81°
2026-04-26 17:00 21.31451 -156.99709 17956 ft 426 kts 81°
2026-04-26 17:00 21.32170 -156.93366 18669 ft 431 kts 82°
2026-04-26 17:00 21.32538 -156.90167 19008 ft 433 kts 81°
2026-04-26 17:01 21.32902 -156.86951 19342 ft 435 kts 81°
2026-04-26 17:01 21.33272 -156.83724 19720 ft 437 kts 81°
2026-04-26 17:01 21.33652 -156.80483 20040 ft 439 kts 81°
2026-04-26 17:01 21.34028 -156.77226 20383 ft 441 kts 81°
2026-04-26 17:02 21.34399 -156.73951 20701 ft 444 kts 82°
2026-04-26 17:02 21.34771 -156.70658 21042 ft 446 kts 81°
2026-04-26 17:02 21.35145 -156.67350 21381 ft 448 kts 82°
2026-04-26 17:02 21.35515 -156.64022 21723 ft 450 kts 81°
2026-04-26 17:03 21.35893 -156.60680 22084 ft 452 kts 81°
2026-04-26 17:03 21.36274 -156.57319 22422 ft 455 kts 81°
2026-04-26 17:03 21.36659 -156.53941 22787 ft 457 kts 81°
2026-04-26 17:03 21.37038 -156.50543 23123 ft 460 kts 82°
2026-04-26 17:04 21.37420 -156.47119 23455 ft 463 kts 81°
2026-04-26 17:04 21.37807 -156.43684 23759 ft 465 kts 81°
2026-04-26 17:04 21.38195 -156.40232 24046 ft 467 kts 82°
2026-04-26 17:04 21.38574 -156.36811 24319 ft 469 kts 82°
2026-04-26 17:05 21.38966 -156.33330 24600 ft 471 kts 81°
2026-04-26 17:05 21.39357 -156.29835 24866 ft 473 kts 81°
2026-04-26 17:05 21.39748 -156.26326 25127 ft 475 kts 81°
2026-04-26 17:05 21.40144 -156.22754 25382 ft 477 kts 82°
2026-04-26 17:06 21.40530 -156.19268 25691 ft 477 kts 81°
2026-04-26 17:06 21.40918 -156.15746 26049 ft 476 kts 82°
2026-04-26 17:06 21.41304 -156.12221 26375 ft 475 kts 81°
2026-04-26 17:06 21.41692 -156.08701 26712 ft 475 kts 82°
2026-04-26 17:07 21.42078 -156.05185 27038 ft 474 kts 81°
2026-04-26 17:07 21.42459 -156.01664 27365 ft 474 kts 82°
2026-04-26 17:07 21.42833 -155.98155 27690 ft 473 kts 81°
2026-04-26 17:07 21.43218 -155.94659 28019 ft 472 kts 81°
2026-04-26 17:08 21.43605 -155.91160 28333 ft 472 kts 81°
2026-04-26 17:08 21.43985 -155.87662 28637 ft 472 kts 81°
2026-04-26 17:08 21.44356 -155.84166 28933 ft 471 kts 81°
2026-04-26 17:08 21.44735 -155.80676 29234 ft 471 kts 81°
2026-04-26 17:09 21.45115 -155.77189 29534 ft 470 kts 81°
2026-04-26 17:09 21.45244 -155.76007 29639 ft 470 kts 81°
2026-04-26 17:09 21.45875 -155.70225 30095 ft 469 kts 81°
2026-04-26 17:09 21.46243 -155.66746 30331 ft 469 kts 82°
2026-04-26 17:10 21.46612 -155.63270 30548 ft 469 kts 81°
2026-04-26 17:10 21.46985 -155.59796 30765 ft 468 kts 82°
2026-04-26 17:10 21.47352 -155.56324 30982 ft 468 kts 81°
2026-04-26 17:10 21.47721 -155.52855 31183 ft 468 kts 81°
2026-04-26 17:11 21.48088 -155.49387 31382 ft 467 kts 81°
2026-04-26 17:11 21.48460 -155.45922 31581 ft 467 kts 81°
2026-04-26 17:11 21.48825 -155.42458 31763 ft 467 kts 81°
2026-04-26 17:11 21.49188 -155.38994 31940 ft 467 kts 81°
2026-04-26 17:12 21.49926 -155.32116 32276 ft 466 kts 81°
2026-04-26 17:12 21.50175 -155.29784 32401 ft 466 kts 81°
2026-04-26 17:13 21.51004 -155.21735 32772 ft 466 kts 81°
2026-04-26 17:13 21.51360 -155.18276 32920 ft 466 kts 81°
2026-04-26 17:13 21.52077 -155.11359 33139 ft 466 kts 81°
2026-04-26 17:14 21.52320 -155.09019 33129 ft 466 kts 81°
2026-04-26 17:14 21.53394 -154.98650 33081 ft 466 kts 81°
2026-04-26 17:15 21.54461 -154.88282 33085 ft 465 kts 81°
2026-04-26 17:16 21.55172 -154.81417 33085 ft 465 kts 81°
2026-04-26 17:16 21.55873 -154.74504 33083 ft 465 kts 81°
2026-04-26 17:17 21.56567 -154.67589 33081 ft 466 kts 82°
2026-04-26 17:17 21.57270 -154.60636 33089 ft 465 kts 81°
2026-04-26 17:18 21.57955 -154.53766 33085 ft 465 kts 82°
2026-04-26 17:18 21.58640 -154.46849 33085 ft 465 kts 82°
2026-04-26 17:19 21.59683 -154.36475 33084 ft 466 kts 82°
2026-04-26 17:19 21.60366 -154.29558 33084 ft 465 kts 82°
2026-04-26 17:20 21.60939 -154.23762 33085 ft 465 kts 82°
2026-04-26 17:20 21.61727 -154.15728 33087 ft 465 kts 82°
2026-04-26 17:21 21.62397 -154.08814 33085 ft 465 kts 82°
2026-04-26 17:21 21.63074 -154.01906 33089 ft 465 kts 82°
2026-04-26 17:22 21.63745 -153.94990 33088 ft 465 kts 82°
2026-04-26 17:22 21.64425 -153.88076 33089 ft 465 kts 82°
2026-04-26 17:23 21.65096 -153.81159 33085 ft 465 kts 82°
2026-04-26 17:23 21.65747 -153.74237 33088 ft 465 kts 82°
2026-04-26 17:24 21.66415 -153.67317 33091 ft 465 kts 82°
2026-04-26 17:24 21.67070 -153.60393 33090 ft 465 kts 82°
2026-04-26 17:25 21.67723 -153.53476 33091 ft 465 kts 82°
2026-04-26 17:25 21.68373 -153.46543 33091 ft 465 kts 82°
2026-04-26 17:26 21.69027 -153.39627 33095 ft 465 kts 82°
2026-04-26 17:26 21.69671 -153.32701 33094 ft 465 kts 82°
2026-04-26 17:27 21.70314 -153.25775 33094 ft 465 kts 82°
2026-04-26 17:27 21.70953 -153.18847 33097 ft 465 kts 81°
2026-04-26 17:28 21.72601 -153.12201 33104 ft 459 kts 62°
2026-04-26 17:28 21.75598 -153.06205 33094 ft 458 kts 58°
2026-04-26 17:29 21.78180 -153.01179 33097 ft 458 kts 59°
2026-04-26 17:29 21.81715 -152.94181 33097 ft 458 kts 59°
2026-04-26 17:30 21.84751 -152.88152 33100 ft 458 kts 59°
2026-04-26 17:30 21.87768 -152.82116 33107 ft 458 kts 59°
2026-04-26 17:31 21.90798 -152.76067 33102 ft 458 kts 59°
2026-04-26 17:31 21.93826 -152.70024 33102 ft 458 kts 59°
2026-04-26 17:32 21.96862 -152.63991 33115 ft 458 kts 59°
2026-04-26 17:32 21.99889 -152.57964 33101 ft 458 kts 59°
2026-04-26 17:33 22.02913 -152.51924 33121 ft 458 kts 59°
2026-04-26 17:34 22.07447 -152.42851 33108 ft 458 kts 59°
2026-04-26 17:34 22.10447 -152.36838 33104 ft 458 kts 59°
2026-04-26 17:35 22.13465 -152.30780 33111 ft 458 kts 59°
2026-04-26 17:35 22.16476 -152.24720 33123 ft 458 kts 59°
2026-04-26 17:36 22.19480 -152.18669 33115 ft 458 kts 59°
2026-04-26 17:36 22.22494 -152.12617 33114 ft 458 kts 59°
2026-04-26 17:37 22.25497 -152.06555 33127 ft 458 kts 59°
2026-04-26 17:37 22.28496 -152.00491 33127 ft 458 kts 59°
2026-04-26 17:38 22.32984 -151.91386 33125 ft 458 kts 59°
2026-04-26 17:38 22.35991 -151.85318 33127 ft 458 kts 59°
2026-04-26 17:39 22.38968 -151.79230 33126 ft 458 kts 59°
2026-04-26 17:39 22.41948 -151.73152 33130 ft 458 kts 59°
2026-04-26 17:40 22.44421 -151.68102 33126 ft 458 kts 60°
2026-04-26 17:40 22.47849 -151.61005 33124 ft 458 kts 60°
2026-04-26 17:41 22.50800 -151.54903 33122 ft 458 kts 59°
2026-04-26 17:41 22.53770 -151.48812 33126 ft 458 kts 60°
2026-04-26 17:42 22.56754 -151.42728 33127 ft 458 kts 59°
2026-04-26 17:42 22.59732 -151.36638 33129 ft 458 kts 60°
2026-04-26 17:43 22.62670 -151.30521 33129 ft 458 kts 60°
2026-04-26 17:43 22.65618 -151.24407 33127 ft 458 kts 60°
2026-04-26 17:44 22.68588 -151.18305 33132 ft 458 kts 60°
2026-04-26 17:44 22.71551 -151.12197 33128 ft 458 kts 60°
2026-04-26 17:45 22.74505 -151.06081 33129 ft 458 kts 60°
2026-04-26 17:45 22.77458 -150.99964 33133 ft 458 kts 59°
2026-04-26 17:46 22.80390 -150.93888 33129 ft 458 kts 60°
2026-04-26 17:46 22.83337 -150.87772 33126 ft 458 kts 59°
2026-04-26 17:47 22.85317 -150.83679 33133 ft 458 kts 60°
2026-04-26 17:47 22.89228 -150.75529 33137 ft 458 kts 60°
2026-04-26 17:48 22.92169 -150.69401 33138 ft 458 kts 60°
2026-04-26 17:48 22.95099 -150.63256 33141 ft 458 kts 60°
2026-04-26 17:49 22.98025 -150.57114 33141 ft 458 kts 60°
2026-04-26 17:49 23.00957 -150.50971 33141 ft 458 kts 60°
2026-04-26 17:50 23.03886 -150.44822 33145 ft 458 kts 60°
2026-04-26 17:50 23.06836 -150.38695 33140 ft 458 kts 60°
2026-04-26 17:51 23.09791 -150.32562 33143 ft 458 kts 60°
2026-04-26 17:51 23.12720 -150.26412 33142 ft 458 kts 60°
2026-04-26 17:52 23.15637 -150.20252 33143 ft 458 kts 60°
2026-04-26 17:52 23.18560 -150.14092 33152 ft 459 kts 60°
2026-04-26 17:53 23.21481 -150.07917 33147 ft 459 kts 60°
2026-04-26 17:54 23.25861 -149.98649 33151 ft 459 kts 60°
2026-04-26 17:54 23.28788 -149.92473 33150 ft 459 kts 60°
2026-04-26 17:55 23.31706 -149.86291 33152 ft 459 kts 60°
2026-04-26 17:55 23.34614 -149.80102 33153 ft 459 kts 60°
2026-04-26 17:56 23.37509 -149.73953 33154 ft 461 kts 60°
2026-04-26 17:57 23.43350 -149.61518 33154 ft 461 kts 60°
2026-04-26 17:57 23.46262 -149.55295 33156 ft 461 kts 60°
2026-04-26 17:58 23.52079 -149.42851 33157 ft 461 kts 60°
2026-04-26 17:59 23.56443 -149.33504 33162 ft 463 kts 60°
2026-04-26 17:59 23.58865 -149.28299 33163 ft 463 kts 61°
2026-04-26 18:00 23.61779 -149.22039 33160 ft 463 kts 60°
2026-04-26 18:00 23.64695 -149.15778 33165 ft 463 kts 60°
2026-04-26 18:01 23.67593 -149.09504 33162 ft 463 kts 60°
2026-04-26 18:01 23.70504 -149.03237 33170 ft 463 kts 60°
2026-04-26 18:02 23.72918 -148.98037 33169 ft 462 kts 60°
2026-04-26 18:02 23.76316 -148.90693 33167 ft 465 kts 60°
2026-04-26 18:03 23.79221 -148.84387 33164 ft 465 kts 60°
2026-04-26 18:03 23.82126 -148.78088 33163 ft 465 kts 60°
2026-04-26 18:04 23.85039 -148.71774 33166 ft 465 kts 60°
2026-04-26 18:05 23.89366 -148.62351 33168 ft 465 kts 60°
2026-04-26 18:05 23.92266 -148.56036 33167 ft 465 kts 60°
2026-04-26 18:06 23.95161 -148.49724 33174 ft 464 kts 60°
2026-04-26 18:06 23.98042 -148.43400 33166 ft 465 kts 60°
2026-04-26 18:07 24.00908 -148.37052 33176 ft 465 kts 61°
2026-04-26 18:07 24.03797 -148.30716 33174 ft 465 kts 60°
2026-04-26 18:08 24.06711 -148.24402 33174 ft 465 kts 60°
2026-04-26 18:08 24.09588 -148.18044 33179 ft 466 kts 61°
2026-04-26 18:09 24.12463 -148.11693 33171 ft 465 kts 60°
2026-04-26 18:09 24.15359 -148.05357 33173 ft 465 kts 60°
2026-04-26 18:10 24.18243 -147.99013 33188 ft 465 kts 61°
2026-04-26 18:10 24.21120 -147.92663 33176 ft 465 kts 60°
2026-04-26 18:11 24.24007 -147.86300 33186 ft 467 kts 60°
2026-04-26 18:11 24.26885 -147.79931 33195 ft 467 kts 61°
2026-04-26 18:12 24.29747 -147.73598 33186 ft 466 kts 61°
2026-04-26 18:12 24.32605 -147.67223 33185 ft 466 kts 61°
2026-04-26 18:13 24.35472 -147.60850 33185 ft 466 kts 61°
2026-04-26 18:13 24.38309 -147.54446 33183 ft 467 kts 61°
2026-04-26 18:14 24.41164 -147.48050 33184 ft 467 kts 61°
2026-04-26 18:14 24.44028 -147.41666 33185 ft 467 kts 61°
2026-04-26 18:15 24.46887 -147.35263 33184 ft 468 kts 61°
2026-04-26 18:15 24.49768 -147.28854 33194 ft 468 kts 61°
2026-04-26 18:16 24.52658 -147.22446 33184 ft 468 kts 61°
2026-04-26 18:16 24.56964 -147.12817 33191 ft 468 kts 61°
2026-04-26 18:17 24.59826 -147.06382 33186 ft 469 kts 61°
2026-04-26 18:17 24.62684 -146.99926 33189 ft 470 kts 61°
2026-04-26 18:18 24.65533 -146.93485 33192 ft 467 kts 61°
2026-04-26 18:18 24.68383 -146.87061 33191 ft 467 kts 61°
2026-04-26 18:19 24.71229 -146.80626 33193 ft 469 kts 61°
2026-04-26 18:19 24.74069 -146.74178 33193 ft 469 kts 61°
2026-04-26 18:20 24.76913 -146.67719 33194 ft 469 kts 62°
2026-04-26 18:20 24.79272 -146.62343 33196 ft 469 kts 61°
2026-04-26 18:21 24.82580 -146.54846 33200 ft 469 kts 61°
2026-04-26 18:21 24.85410 -146.48370 33195 ft 469 kts 62°
2026-04-26 18:22 24.88247 -146.41894 33194 ft 469 kts 61°
2026-04-26 18:22 24.91085 -146.35417 33197 ft 469 kts 61°
2026-04-26 18:23 24.93920 -146.28935 33200 ft 470 kts 62°
2026-04-26 18:23 24.96747 -146.22444 33208 ft 471 kts 61°
2026-04-26 18:24 24.99580 -146.15947 33198 ft 470 kts 61°
2026-04-26 18:24 25.02404 -146.09445 33196 ft 470 kts 62°
2026-04-26 18:25 25.05229 -146.02943 33205 ft 470 kts 62°
2026-04-26 18:25 25.08055 -145.96439 33205 ft 470 kts 62°
2026-04-26 18:26 25.10870 -145.89926 33201 ft 470 kts 62°
2026-04-26 18:26 25.13683 -145.83417 33209 ft 470 kts 62°
2026-04-26 18:27 25.16479 -145.76942 33207 ft 471 kts 62°
2026-04-26 18:27 25.19298 -145.70408 33204 ft 472 kts 62°
2026-04-26 18:28 25.22108 -145.63864 33204 ft 472 kts 62°
2026-04-26 18:28 25.24925 -145.57322 33208 ft 472 kts 62°
2026-04-26 18:29 25.27738 -145.50775 33206 ft 472 kts 62°
2026-04-26 18:29 25.30545 -145.44219 33215 ft 473 kts 62°
2026-04-26 18:30 25.33352 -145.37648 33210 ft 473 kts 62°
2026-04-26 18:30 25.36158 -145.31066 33212 ft 473 kts 62°
2026-04-26 18:31 25.38958 -145.24488 33214 ft 473 kts 62°
2026-04-26 18:31 25.41764 -145.17909 33213 ft 474 kts 62°
2026-04-26 18:32 25.44571 -145.11317 33227 ft 473 kts 62°
2026-04-26 18:32 25.47363 -145.04739 33213 ft 471 kts 62°
2026-04-26 18:33 25.50130 -144.98206 33211 ft 473 kts 62°
2026-04-26 18:33 25.52923 -144.91602 33213 ft 474 kts 62°
2026-04-26 18:34 25.55721 -144.84995 33211 ft 474 kts 62°
2026-04-26 18:34 25.58506 -144.78378 33211 ft 474 kts 62°
2026-04-26 18:35 25.61290 -144.71760 33231 ft 474 kts 62°
2026-04-26 18:35 25.64071 -144.65136 33219 ft 474 kts 62°
2026-04-26 18:36 25.66857 -144.58514 33214 ft 474 kts 62°
2026-04-26 18:36 25.69635 -144.51896 33215 ft 474 kts 62°
2026-04-26 18:37 25.72406 -144.45294 33222 ft 476 kts 62°
2026-04-26 18:37 25.75195 -144.38582 33232 ft 477 kts 62°
2026-04-26 18:38 25.77941 -144.31969 33219 ft 473 kts 62°
2026-04-26 18:38 25.80727 -144.25311 33221 ft 473 kts 62°
2026-04-26 18:39 25.83482 -144.18701 33223 ft 476 kts 62°
2026-04-26 18:39 25.86258 -144.12021 33224 ft 476 kts 62°
2026-04-26 18:40 25.89027 -144.05334 33222 ft 477 kts 62°
2026-04-26 18:40 25.91787 -143.98650 33238 ft 472 kts 62°
2026-04-26 18:41 25.94528 -143.92010 33230 ft 474 kts 62°
2026-04-26 18:41 25.97281 -143.85346 33225 ft 474 kts 62°
2026-04-26 18:42 26.00022 -143.78691 33227 ft 474 kts 62°
2026-04-26 18:42 26.02769 -143.72027 33218 ft 476 kts 62°
2026-04-26 18:43 26.05531 -143.65312 33226 ft 478 kts 62°
2026-04-26 18:43 26.08291 -143.58588 33228 ft 478 kts 63°
2026-04-26 18:44 26.11044 -143.51858 33226 ft 478 kts 63°
2026-04-26 18:44 26.13779 -143.45170 33230 ft 478 kts 63°
2026-04-26 18:45 26.16529 -143.38436 33228 ft 478 kts 63°
2026-04-26 18:45 26.19277 -143.31688 33248 ft 478 kts 63°
2026-04-26 18:46 26.22002 -143.24993 33232 ft 473 kts 63°
2026-04-26 18:46 26.24729 -143.18281 33231 ft 477 kts 63°
2026-04-26 18:47 26.27459 -143.11545 33237 ft 477 kts 63°
2026-04-26 18:47 26.30185 -143.04805 33233 ft 477 kts 63°
2026-04-26 18:48 26.32915 -142.98059 33238 ft 479 kts 63°
2026-04-26 18:48 26.35186 -142.92429 33238 ft 477 kts 63°
2026-04-26 18:49 26.37906 -142.85683 33235 ft 477 kts 63°
2026-04-26 18:49 26.40620 -142.78931 33233 ft 477 kts 63°
2026-04-26 18:50 26.43338 -142.72161 33231 ft 480 kts 63°
2026-04-26 18:50 26.46068 -142.65356 33230 ft 481 kts 63°
2026-04-26 18:51 26.48785 -142.58566 33242 ft 476 kts 63°
2026-04-26 18:51 26.51462 -142.51868 33235 ft 475 kts 63°
2026-04-26 18:52 26.54169 -142.45084 33232 ft 481 kts 63°
2026-04-26 18:52 26.56888 -142.38259 33234 ft 481 kts 63°
2026-04-26 18:53 26.59605 -142.31422 33234 ft 481 kts 63°
2026-04-26 18:53 26.62314 -142.24594 33243 ft 479 kts 63°
2026-04-26 18:54 26.65005 -142.17806 33231 ft 478 kts 63°
2026-04-26 18:54 26.67696 -142.11008 33230 ft 478 kts 63°
2026-04-26 18:55 26.70383 -142.04207 33233 ft 478 kts 63°
2026-04-26 18:55 26.73086 -141.97357 33232 ft 484 kts 63°
2026-04-26 18:56 26.75794 -141.90476 33237 ft 481 kts 63°
2026-04-26 18:56 26.78479 -141.83644 33230 ft 480 kts 63°
2026-04-26 18:57 26.80709 -141.77961 33237 ft 482 kts 63°
2026-04-26 18:57 26.83862 -141.69906 33232 ft 484 kts 63°
2026-04-26 18:58 26.86535 -141.63049 33230 ft 483 kts 63°
2026-04-26 18:58 26.89221 -141.56170 33240 ft 479 kts 63°
2026-04-26 18:59 26.91903 -141.49291 33228 ft 483 kts 63°
2026-04-26 18:59 26.94581 -141.42389 33232 ft 483 kts 63°
2026-04-26 19:00 26.97260 -141.35496 33232 ft 483 kts 63°
2026-04-26 19:00 26.99950 -141.28565 33240 ft 486 kts 63°
2026-04-26 19:01 27.02635 -141.21638 33236 ft 481 kts 63°
2026-04-26 19:01 27.05296 -141.14762 33234 ft 481 kts 63°
2026-04-26 19:02 27.07953 -141.07871 33237 ft 481 kts 63°
2026-04-26 19:02 27.10159 -141.02139 33237 ft 481 kts 63°
2026-04-26 19:03 27.13249 -140.94075 33226 ft 481 kts 64°
2026-04-26 19:03 27.15875 -140.87220 33238 ft 475 kts 63°
2026-04-26 19:04 27.18507 -140.80354 33232 ft 480 kts 63°
2026-04-26 19:04 27.21142 -140.73465 33233 ft 480 kts 64°
2026-04-26 19:05 27.25086 -140.63128 33231 ft 481 kts 64°
2026-04-26 19:06 27.27715 -140.56219 33233 ft 482 kts 64°
2026-04-26 19:06 27.30342 -140.49296 33230 ft 481 kts 64°
2026-04-26 19:07 27.32967 -140.42378 33234 ft 481 kts 64°
2026-04-26 19:07 27.35605 -140.35414 33230 ft 485 kts 64°
2026-04-26 19:08 27.38249 -140.28420 33234 ft 486 kts 64°
2026-04-26 19:08 27.40891 -140.21424 33230 ft 486 kts 64°
2026-04-26 19:09 27.43540 -140.14401 33227 ft 490 kts 64°
2026-04-26 19:09 27.46195 -140.07338 33231 ft 490 kts 64°
2026-04-26 19:10 27.48852 -140.00254 33234 ft 490 kts 64°
2026-04-26 19:10 27.51509 -139.93162 33239 ft 492 kts 64°
2026-04-26 19:11 27.54147 -139.86103 33233 ft 492 kts 64°
2026-04-26 19:11 27.56795 -139.79003 33230 ft 492 kts 64°
2026-04-26 19:12 27.59446 -139.71888 33232 ft 494 kts 64°
2026-04-26 19:12 27.62106 -139.64732 33230 ft 495 kts 64°
2026-04-26 19:13 27.64752 -139.57595 33231 ft 492 kts 64°
2026-04-26 19:13 27.67391 -139.50472 33227 ft 494 kts 64°
2026-04-26 19:14 27.70041 -139.43307 33230 ft 496 kts 64°
2026-04-26 19:14 27.72689 -139.36121 33226 ft 496 kts 64°
2026-04-26 19:15 27.75336 -139.28943 33238 ft 494 kts 64°
2026-04-26 19:15 27.77982 -139.21743 33228 ft 497 kts 65°
2026-04-26 19:16 27.80629 -139.14529 33228 ft 497 kts 65°
2026-04-26 19:16 27.83270 -139.07310 33221 ft 497 kts 65°
2026-04-26 19:17 27.85928 -139.00045 33261 ft 500 kts 65°
2026-04-26 19:17 27.88568 -138.92805 33232 ft 497 kts 65°
2026-04-26 19:18 27.91204 -138.85572 33229 ft 498 kts 65°
2026-04-26 19:18 27.93831 -138.78332 33231 ft 498 kts 65°
2026-04-26 19:19 27.96451 -138.71098 33232 ft 497 kts 65°
2026-04-26 19:19 27.99065 -138.63868 33227 ft 496 kts 65°
2026-04-26 19:20 28.01684 -138.56610 33232 ft 499 kts 65°
2026-04-26 19:20 28.04304 -138.49340 33238 ft 499 kts 65°
2026-04-26 19:21 28.06903 -138.42112 33216 ft 500 kts 65°
2026-04-26 19:21 28.09526 -138.34802 33236 ft 500 kts 65°
2026-04-26 19:22 28.12139 -138.27499 33225 ft 500 kts 65°
2026-04-26 19:22 28.14753 -138.20189 33227 ft 502 kts 65°
2026-04-26 19:23 28.17378 -138.12834 33228 ft 504 kts 65°
2026-04-26 19:23 28.19996 -138.05473 33239 ft 502 kts 65°
2026-04-26 19:24 28.22605 -137.98130 33226 ft 505 kts 65°
2026-04-26 19:24 28.26538 -137.87039 33228 ft 505 kts 66°
2026-04-26 19:25 28.28271 -137.82140 33227 ft 505 kts 66°
2026-04-26 19:25 28.31771 -137.72219 33231 ft 506 kts 66°
2026-04-26 19:26 28.34385 -137.64797 33228 ft 506 kts 66°
2026-04-26 19:26 28.36990 -137.57380 33214 ft 507 kts 66°
2026-04-26 19:27 28.39584 -137.49980 33226 ft 509 kts 66°
2026-04-26 19:27 28.42190 -137.42526 33236 ft 507 kts 66°
2026-04-26 19:28 28.44793 -137.35078 33219 ft 509 kts 66°
2026-04-26 19:28 28.47404 -137.27594 33211 ft 510 kts 66°
2026-04-26 19:29 28.50012 -137.20100 33219 ft 510 kts 66°
2026-04-26 19:29 28.52612 -137.12599 33222 ft 511 kts 66°
2026-04-26 19:30 28.55218 -137.05068 33220 ft 512 kts 66°
2026-04-26 19:30 28.57383 -136.98801 33223 ft 512 kts 66°
2026-04-26 19:31 28.60430 -136.89973 33246 ft 514 kts 66°
2026-04-26 19:31 28.63035 -136.82408 33231 ft 513 kts 67°
2026-04-26 19:32 28.65635 -136.74841 33215 ft 513 kts 67°
2026-04-26 19:32 28.68229 -136.67274 33220 ft 513 kts 67°
2026-04-26 19:33 28.70800 -136.59752 33243 ft 512 kts 67°
2026-04-26 19:33 28.73379 -136.52195 33212 ft 513 kts 67°
2026-04-26 19:34 28.75962 -136.44609 33217 ft 514 kts 67°
2026-04-26 19:34 28.78544 -136.37018 33218 ft 514 kts 67°
2026-04-26 19:35 28.81125 -136.29409 33242 ft 515 kts 67°
2026-04-26 19:35 28.83694 -136.21796 33219 ft 514 kts 67°
2026-04-26 19:36 28.85395 -136.16759 33205 ft 514 kts 67°
2026-04-26 19:36 28.88841 -136.06545 33213 ft 516 kts 67°
2026-04-26 19:37 28.91405 -135.98915 33223 ft 514 kts 67°
2026-04-26 19:37 28.93968 -135.91280 33213 ft 516 kts 68°
2026-04-26 19:38 28.96097 -135.84911 33215 ft 516 kts 68°
2026-04-26 19:38 28.99074 -135.76008 33234 ft 517 kts 68°
2026-04-26 19:39 29.01201 -135.69630 33219 ft 516 kts 68°
2026-04-26 19:39 29.03765 -135.61917 33212 ft 516 kts 68°
2026-04-26 19:40 29.06296 -135.54289 33204 ft 518 kts 68°
2026-04-26 19:40 29.08849 -135.46586 33235 ft 518 kts 68°
2026-04-26 19:41 29.11387 -135.38898 33216 ft 516 kts 68°
2026-04-26 19:41 29.13514 -135.32450 33205 ft 518 kts 68°
2026-04-26 19:42 29.16470 -135.23468 33208 ft 519 kts 68°
2026-04-26 19:42 29.19004 -135.15754 33210 ft 518 kts 68°
2026-04-26 19:43 29.21531 -135.08030 33209 ft 518 kts 68°
2026-04-26 19:43 29.24057 -135.00292 33206 ft 518 kts 68°
2026-04-26 19:44 29.26581 -134.92559 33208 ft 518 kts 68°
2026-04-26 19:44 29.29099 -134.84819 33206 ft 518 kts 68°
2026-04-26 19:45 29.31611 -134.77073 33207 ft 519 kts 68°
2026-04-26 19:45 29.34121 -134.69324 33207 ft 519 kts 68°
2026-04-26 19:46 29.36625 -134.61570 33205 ft 519 kts 68°
2026-04-26 19:46 29.39125 -134.53807 33198 ft 519 kts 68°
2026-04-26 19:47 29.41198 -134.47354 33199 ft 519 kts 68°
2026-04-26 19:47 29.44109 -134.38269 33206 ft 519 kts 68°
2026-04-26 19:48 29.46590 -134.30494 33200 ft 519 kts 68°
2026-04-26 19:48 29.49068 -134.22717 33200 ft 519 kts 68°
2026-04-26 19:49 29.51528 -134.14994 33203 ft 518 kts 68°
2026-04-26 19:49 29.54011 -134.07225 33197 ft 518 kts 68°
2026-04-26 19:50 29.56498 -133.99396 33201 ft 518 kts 68°
2026-04-26 19:50 29.58949 -133.91663 33195 ft 519 kts 68°
2026-04-26 19:51 29.61413 -133.83883 33192 ft 519 kts 68°
2026-04-26 19:51 29.63868 -133.76088 33198 ft 518 kts 68°
2026-04-26 19:52 29.66313 -133.68290 33193 ft 518 kts 68°
2026-04-26 19:52 29.68756 -133.60491 33202 ft 518 kts 68°
2026-04-26 19:53 29.71185 -133.52695 33190 ft 517 kts 69°
2026-04-26 19:53 29.73624 -133.44906 33189 ft 517 kts 69°
2026-04-26 19:54 29.76052 -133.37107 33168 ft 519 kts 69°
2026-04-26 19:54 29.78490 -133.29242 33185 ft 523 kts 69°
2026-04-26 19:55 29.80936 -133.21349 33192 ft 523 kts 69°
2026-04-26 19:55 29.83384 -133.13452 33183 ft 524 kts 69°
2026-04-26 19:56 29.85801 -133.05589 33179 ft 523 kts 69°
2026-04-26 19:56 29.88228 -132.97690 33190 ft 523 kts 69°
2026-04-26 19:57 29.90652 -132.89777 33191 ft 524 kts 69°
2026-04-26 19:57 29.93083 -132.81864 33190 ft 524 kts 69°
2026-04-26 19:58 29.95503 -132.73936 33187 ft 523 kts 69°
2026-04-26 19:58 29.97912 -132.66022 33181 ft 523 kts 69°
2026-04-26 19:59 30.00326 -132.58099 33187 ft 524 kts 69°
2026-04-26 19:59 30.02726 -132.50164 33184 ft 524 kts 69°
2026-04-26 20:00 30.05129 -132.42226 33182 ft 524 kts 69°
2026-04-26 20:00 30.07529 -132.34283 33183 ft 524 kts 69°
2026-04-26 20:01 30.09915 -132.26344 33182 ft 524 kts 69°
2026-04-26 20:01 30.12298 -132.18394 33192 ft 524 kts 69°
2026-04-26 20:02 30.14673 -132.10441 33180 ft 524 kts 69°
2026-04-26 20:02 30.16654 -132.03838 33176 ft 524 kts 69°
2026-04-26 20:03 30.19426 -131.94529 33179 ft 523 kts 69°
2026-04-26 20:03 30.21785 -131.86571 33170 ft 523 kts 69°
2026-04-26 20:04 30.24144 -131.78601 33173 ft 523 kts 69°
2026-04-26 20:04 30.26477 -131.70689 33174 ft 524 kts 69°
2026-04-26 20:05 30.28837 -131.62706 33178 ft 524 kts 69°
2026-04-26 20:05 30.31179 -131.54714 33186 ft 524 kts 69°
2026-04-26 20:06 30.33526 -131.46729 33161 ft 524 kts 69°
2026-04-26 20:06 30.35866 -131.38741 33166 ft 524 kts 69°
2026-04-26 20:07 30.38192 -131.30753 33168 ft 525 kts 69°
2026-04-26 20:07 30.40522 -131.22737 33164 ft 525 kts 69°
2026-04-26 20:08 30.42854 -131.14716 33160 ft 525 kts 69°
2026-04-26 20:08 30.45188 -131.06646 33158 ft 530 kts 70°
2026-04-26 20:09 30.47527 -130.98539 33161 ft 530 kts 70°
2026-04-26 20:09 30.49866 -130.90429 33164 ft 530 kts 69°
2026-04-26 20:10 30.52212 -130.82313 33150 ft 531 kts 70°
2026-04-26 20:10 30.54528 -130.74187 33154 ft 531 kts 70°
2026-04-26 20:11 30.56848 -130.66051 33159 ft 531 kts 70°
2026-04-26 20:12 30.60317 -130.53842 33148 ft 531 kts 70°
2026-04-26 20:12 30.62629 -130.45702 33158 ft 531 kts 70°
2026-04-26 20:13 30.64932 -130.37601 33154 ft 532 kts 70°
2026-04-26 20:13 30.67226 -130.29443 33153 ft 532 kts 70°
2026-04-26 20:14 30.69528 -130.21275 33162 ft 532 kts 70°
2026-04-26 20:14 30.71829 -130.13083 33153 ft 533 kts 70°
2026-04-26 20:15 30.74123 -130.04905 33153 ft 533 kts 70°
2026-04-26 20:15 30.76402 -129.96701 33155 ft 534 kts 70°
2026-04-26 20:16 30.78703 -129.88490 33151 ft 534 kts 70°
2026-04-26 20:16 30.80975 -129.80268 33166 ft 534 kts 70°
2026-04-26 20:17 30.83265 -129.72038 33146 ft 535 kts 70°
2026-04-26 20:17 30.85540 -129.63791 33146 ft 535 kts 70°
2026-04-26 20:18 30.87794 -129.55532 33158 ft 536 kts 70°
2026-04-26 20:18 30.90077 -129.47258 33148 ft 537 kts 70°
2026-04-26 20:19 30.92347 -129.38971 33145 ft 537 kts 70°
2026-04-26 20:19 30.94620 -129.30681 33146 ft 538 kts 70°
2026-04-26 20:20 30.96887 -129.22385 33142 ft 538 kts 70°
2026-04-26 20:20 30.99105 -129.14108 33141 ft 538 kts 71°
2026-04-26 20:21 31.01358 -129.05725 33145 ft 539 kts 71°
2026-04-26 20:21 31.03606 -128.97393 33142 ft 539 kts 70°
2026-04-26 20:22 31.05830 -128.89113 33146 ft 539 kts 71°
2026-04-26 20:22 31.08071 -128.80766 33141 ft 539 kts 70°
2026-04-26 20:23 31.10324 -128.72416 33109 ft 539 kts 70°
2026-04-26 20:23 31.12563 -128.64034 33143 ft 541 kts 71°
2026-04-26 20:24 31.14779 -128.55648 33136 ft 541 kts 71°
2026-04-26 20:24 31.17002 -128.47250 33136 ft 541 kts 71°
2026-04-26 20:25 31.19228 -128.38851 33134 ft 541 kts 71°
2026-04-26 20:25 31.21445 -128.30446 33133 ft 541 kts 71°
2026-04-26 20:26 31.23304 -128.23463 33135 ft 541 kts 71°
2026-04-26 20:26 31.25529 -128.15067 33132 ft 542 kts 71°
2026-04-26 20:27 31.27717 -128.06639 33129 ft 542 kts 71°
2026-04-26 20:27 31.29921 -127.98214 33130 ft 542 kts 71°
2026-04-26 20:28 31.32089 -127.89773 33130 ft 542 kts 71°
2026-04-26 20:28 31.34285 -127.81337 33128 ft 542 kts 71°
2026-04-26 20:29 31.36506 -127.72909 33122 ft 542 kts 71°
2026-04-26 20:29 31.38671 -127.64470 33128 ft 542 kts 71°
2026-04-26 20:30 31.40846 -127.56018 33126 ft 542 kts 71°
2026-04-26 20:30 31.43003 -127.47629 33127 ft 542 kts 71°
2026-04-26 20:31 31.45150 -127.39200 33131 ft 540 kts 71°
2026-04-26 20:31 31.47290 -127.30767 33127 ft 540 kts 71°
2026-04-26 20:32 31.49426 -127.22330 33133 ft 540 kts 71°
2026-04-26 20:32 31.51570 -127.13916 33123 ft 538 kts 71°
2026-04-26 20:33 31.53691 -127.05487 33124 ft 539 kts 71°
2026-04-26 20:33 31.55810 -126.97064 33129 ft 538 kts 71°
2026-04-26 20:34 31.57926 -126.88660 33121 ft 537 kts 71°
2026-04-26 20:34 31.60023 -126.80250 33118 ft 537 kts 71°
2026-04-26 20:35 31.62119 -126.71853 33126 ft 536 kts 71°
2026-04-26 20:35 31.64203 -126.63468 33120 ft 535 kts 71°
2026-04-26 20:36 31.66281 -126.55080 33119 ft 535 kts 72°
2026-04-26 20:36 31.68350 -126.46686 33123 ft 534 kts 72°
2026-04-26 20:37 31.70383 -126.38300 33114 ft 534 kts 72°
2026-04-26 20:37 31.72434 -126.29982 33113 ft 534 kts 72°
2026-04-26 20:38 31.74495 -126.21606 33114 ft 533 kts 72°
2026-04-26 20:38 31.76546 -126.13258 33070 ft 532 kts 72°
2026-04-26 20:39 31.78598 -126.04841 33104 ft 539 kts 72°
2026-04-26 20:39 31.80648 -125.96354 33112 ft 540 kts 72°
2026-04-26 20:40 31.82705 -125.87864 33107 ft 540 kts 72°
2026-04-26 20:40 31.84746 -125.79370 33111 ft 540 kts 72°
2026-04-26 20:41 31.86786 -125.70876 33118 ft 539 kts 72°
2026-04-26 20:41 31.88823 -125.62406 33109 ft 538 kts 72°
2026-04-26 20:42 31.90844 -125.53939 33113 ft 538 kts 72°
2026-04-26 20:42 31.92848 -125.45456 33120 ft 537 kts 73°
2026-04-26 20:43 31.94853 -125.36996 33103 ft 536 kts 72°
2026-04-26 20:43 31.96860 -125.28533 33106 ft 537 kts 72°
2026-04-26 20:44 31.98853 -125.20066 33102 ft 536 kts 72°
2026-04-26 20:44 32.00824 -125.11663 33104 ft 536 kts 73°
2026-04-26 20:45 32.02814 -125.03212 33108 ft 536 kts 73°
2026-04-26 20:45 32.04771 -124.94741 33112 ft 535 kts 73°
2026-04-26 20:46 32.06746 -124.86285 33095 ft 535 kts 73°
2026-04-26 20:46 32.08714 -124.77825 33094 ft 535 kts 73°
2026-04-26 20:47 32.10660 -124.69360 33104 ft 533 kts 73°
2026-04-26 20:47 32.12601 -124.60929 33109 ft 532 kts 73°
2026-04-26 20:48 32.14526 -124.52490 33098 ft 533 kts 73°
2026-04-26 20:48 32.16463 -124.44055 33116 ft 532 kts 73°
2026-04-26 20:49 32.18385 -124.35624 33102 ft 531 kts 73°
2026-04-26 20:49 32.20299 -124.27211 33102 ft 531 kts 73°
2026-04-26 20:50 32.22215 -124.18777 33104 ft 531 kts 74°
2026-04-26 20:50 32.24091 -124.10406 33097 ft 531 kts 74°
2026-04-26 20:51 32.25866 -124.01952 33094 ft 531 kts 75°
2026-04-26 20:51 32.27634 -123.93487 33108 ft 531 kts 75°
2026-04-26 20:52 32.29385 -123.85023 33095 ft 530 kts 75°
2026-04-26 20:52 32.31141 -123.76562 33094 ft 530 kts 75°
2026-04-26 20:53 32.32884 -123.68095 33107 ft 530 kts 76°
2026-04-26 20:53 32.34610 -123.59646 33093 ft 529 kts 76°
2026-04-26 20:54 32.36341 -123.51196 33093 ft 529 kts 75°
2026-04-26 20:54 32.38063 -123.42697 33083 ft 535 kts 76°
2026-04-26 20:55 32.39794 -123.34122 33092 ft 536 kts 75°
2026-04-26 20:55 32.41554 -123.25558 33088 ft 536 kts 75°
2026-04-26 20:56 32.43290 -123.16965 33086 ft 536 kts 76°
2026-04-26 20:56 32.44996 -123.08379 33090 ft 535 kts 76°
2026-04-26 20:57 32.46733 -122.99811 33086 ft 535 kts 74°
2026-04-26 20:57 32.48697 -122.91324 33084 ft 535 kts 73°
2026-04-26 20:58 32.50642 -122.82880 33084 ft 535 kts 74°
2026-04-26 20:58 32.52606 -122.74379 33082 ft 535 kts 73°
2026-04-26 20:59 32.54563 -122.65875 33082 ft 535 kts 74°
2026-04-26 20:59 32.56504 -122.57377 33091 ft 534 kts 74°
2026-04-26 21:00 32.58447 -122.48874 33069 ft 534 kts 74°
2026-04-26 21:00 32.60375 -122.40369 33087 ft 534 kts 74°
2026-04-26 21:01 32.62309 -122.31863 33083 ft 534 kts 74°
2026-04-26 21:01 32.64232 -122.23357 33077 ft 534 kts 74°
2026-04-26 21:02 32.66147 -122.14847 33077 ft 534 kts 75°
2026-04-26 21:02 32.68145 -122.06366 33085 ft 533 kts 69°
2026-04-26 21:02 32.69693 -122.02400 33085 ft 527 kts 57°
2026-04-26 21:03 32.71586 -121.98683 33079 ft 526 kts 54°
2026-04-26 21:03 32.75500 -121.91349 33063 ft 526 kts 54°
2026-04-26 21:04 32.79364 -121.83970 33073 ft 526 kts 55°
2026-04-26 21:04 32.83197 -121.76567 33072 ft 526 kts 55°
2026-04-26 21:05 32.87016 -121.69217 33065 ft 526 kts 55°
2026-04-26 21:05 32.90858 -121.61794 33068 ft 527 kts 56°
2026-04-26 21:06 32.94668 -121.54411 33076 ft 516 kts 56°
2026-04-26 21:06 32.98405 -121.47161 33060 ft 516 kts 56°
2026-04-26 21:07 33.02188 -121.39806 33067 ft 521 kts 56°
2026-04-26 21:07 33.05968 -121.32430 33064 ft 521 kts 56°
2026-04-26 21:08 33.09750 -121.25050 33059 ft 521 kts 56°
2026-04-26 21:08 33.13518 -121.17674 33061 ft 520 kts 56°
2026-04-26 21:09 33.17249 -121.10352 33059 ft 520 kts 56°
2026-04-26 21:09 33.21005 -121.02973 33060 ft 520 kts 56°
2026-04-26 21:10 33.24779 -120.95548 33064 ft 520 kts 56°
2026-04-26 21:10 33.28541 -120.88161 33056 ft 521 kts 56°
2026-04-26 21:11 33.32272 -120.80796 33052 ft 521 kts 56°
2026-04-26 21:11 33.36015 -120.73379 33051 ft 521 kts 56°
2026-04-26 21:12 33.39737 -120.65959 33001 ft 519 kts 57°
2026-04-26 21:12 33.41578 -120.62258 32639 ft 518 kts 57°
2026-04-26 21:12 33.43428 -120.58593 32337 ft 511 kts 57°
2026-04-26 21:12 33.45259 -120.54964 32055 ft 508 kts 57°
2026-04-26 21:13 33.47080 -120.51350 31795 ft 506 kts 57°
2026-04-26 21:13 33.48896 -120.47745 31549 ft 505 kts 57°
2026-04-26 21:13 33.50705 -120.44147 31297 ft 503 kts 57°
2026-04-26 21:13 33.52501 -120.40550 31052 ft 502 kts 57°
2026-04-26 21:14 33.53689 -120.38181 30887 ft 502 kts 57°
2026-04-26 21:14 33.55488 -120.34584 30645 ft 502 kts 57°
2026-04-26 21:14 33.57271 -120.30993 30403 ft 501 kts 57°
2026-04-26 21:14 33.59060 -120.27418 30162 ft 499 kts 57°
2026-04-26 21:15 33.60841 -120.23848 29887 ft 498 kts 57°
2026-04-26 21:15 33.62614 -120.20277 29598 ft 498 kts 57°
2026-04-26 21:15 33.64961 -120.15549 29222 ft 498 kts 57°
2026-04-26 21:15 33.66733 -120.11981 28620 ft 496 kts 57°
2026-04-26 21:16 33.67924 -120.09572 28034 ft 496 kts 58°
2026-04-26 21:16 33.69682 -120.06003 27122 ft 497 kts 57°
2026-04-26 21:16 33.71448 -120.02440 26262 ft 496 kts 57°
2026-04-26 21:16 33.73210 -119.98894 25510 ft 493 kts 57°
2026-04-26 21:17 33.74962 -119.95369 24778 ft 490 kts 57°
2026-04-26 21:17 33.76696 -119.91862 24060 ft 486 kts 57°
2026-04-26 21:17 33.78417 -119.88374 23326 ft 483 kts 58°
2026-04-26 21:17 33.80119 -119.84907 22524 ft 480 kts 58°
2026-04-26 21:18 33.81786 -119.81514 21757 ft 474 kts 58°
2026-04-26 21:18 33.83443 -119.78135 20996 ft 465 kts 58°
2026-04-26 21:18 33.85063 -119.74833 20270 ft 452 kts 58°
2026-04-26 21:18 33.86634 -119.71625 19631 ft 438 kts 58°
2026-04-26 21:19 33.88168 -119.68504 18997 ft 429 kts 58°
2026-04-26 21:19 33.89678 -119.65441 18442 ft 419 kts 58°
2026-04-26 21:19 33.91136 -119.62482 18026 ft 403 kts 58°
2026-04-26 21:19 33.92542 -119.59635 17616 ft 388 kts 58°
2026-04-26 21:20 33.93898 -119.56877 17170 ft 378 kts 58°
2026-04-26 21:20 33.95224 -119.54179 16692 ft 372 kts 57°
2026-04-26 21:20 33.96538 -119.51504 16225 ft 371 kts 57°
2026-04-26 21:20 33.97858 -119.48824 15762 ft 372 kts 57°
2026-04-26 21:21 33.99174 -119.46135 15328 ft 373 kts 57°
2026-04-26 21:21 34.00491 -119.43446 14914 ft 371 kts 57°
2026-04-26 21:21 34.01790 -119.40789 14480 ft 365 kts 57°
2026-04-26 21:21 34.03075 -119.38162 14030 ft 364 kts 57°
2026-04-26 21:22 34.04362 -119.35530 13596 ft 364 kts 57°
2026-04-26 21:22 34.05636 -119.32920 13156 ft 358 kts 57°
2026-04-26 21:22 34.06897 -119.30342 12766 ft 356 kts 56°
2026-04-26 21:23 34.09400 -119.25216 12207 ft 353 kts 57°
2026-04-26 21:23 34.10645 -119.22667 11965 ft 352 kts 56°
2026-04-26 21:23 34.11884 -119.20127 11751 ft 350 kts 56°
2026-04-26 21:23 34.13103 -119.17629 11530 ft 340 kts 56°
2026-04-26 21:24 34.14276 -119.15211 11341 ft 327 kts 56°
2026-04-26 21:24 34.15410 -119.12888 11163 ft 315 kts 56°
2026-04-26 21:24 34.16509 -119.10633 11001 ft 312 kts 56°
2026-04-26 21:24 34.17583 -119.08358 10946 ft 313 kts 61°
2026-04-26 21:25 34.18128 -119.05812 10948 ft 319 kts 88°
2026-04-26 21:25 34.17722 -119.03229 10804 ft 311 kts 114°
2026-04-26 21:25 34.16750 -119.00900 10619 ft 315 kts 120°
2026-04-26 21:25 34.15708 -118.98565 10416 ft 316 kts 119°
2026-04-26 21:26 34.14700 -118.96202 10283 ft 317 kts 118°
2026-04-26 21:26 34.13725 -118.93821 10208 ft 315 kts 117°
2026-04-26 21:26 34.12772 -118.91440 10129 ft 316 kts 116°
2026-04-26 21:26 34.11837 -118.89074 10042 ft 316 kts 116°
2026-04-26 21:27 34.10899 -118.86688 9973 ft 314 kts 116°
2026-04-26 21:27 34.09963 -118.84301 9941 ft 315 kts 116°
2026-04-26 21:27 34.09030 -118.81916 9950 ft 315 kts 117°
2026-04-26 21:27 34.08095 -118.79528 9955 ft 315 kts 116°
2026-04-26 21:28 34.07158 -118.77134 9957 ft 315 kts 116°
2026-04-26 21:28 34.06226 -118.74749 9951 ft 315 kts 116°
2026-04-26 21:28 34.05297 -118.72385 9628 ft 309 kts 116°
2026-04-26 21:28 34.04384 -118.70053 9299 ft 305 kts 116°
2026-04-26 21:29 34.03486 -118.67764 9109 ft 299 kts 116°
2026-04-26 21:29 34.02751 -118.65446 8859 ft 295 kts 101°
2026-04-26 21:29 34.02489 -118.62989 8453 ft 296 kts 95°
2026-04-26 21:29 34.02312 -118.60544 8198 ft 290 kts 95°
2026-04-26 21:30 34.02119 -118.58149 8029 ft 288 kts 95°
2026-04-26 21:30 34.01911 -118.55738 7825 ft 288 kts 96°
2026-04-26 21:30 34.01697 -118.53350 7587 ft 288 kts 96°
2026-04-26 21:30 34.01482 -118.50964 7276 ft 285 kts 96°
2026-04-26 21:31 34.01261 -118.48607 6901 ft 281 kts 96°
2026-04-26 21:31 34.01056 -118.46291 6460 ft 273 kts 92°
2026-04-26 21:31 34.01211 -118.44079 6136 ft 258 kts 78°
2026-04-26 21:31 34.01567 -118.42016 5787 ft 247 kts 76°
2026-04-26 21:32 34.01936 -118.40020 5325 ft 242 kts 76°
2026-04-26 21:32 34.02298 -118.38057 4829 ft 239 kts 77°
2026-04-26 21:32 34.02642 -118.36106 4256 ft 239 kts 81°
2026-04-26 21:32 34.02885 -118.34132 3723 ft 236 kts 84°
2026-04-26 21:33 34.03084 -118.32189 3209 ft 231 kts 84°
2026-04-26 21:33 34.03277 -118.30274 2759 ft 229 kts 84°
2026-04-26 21:33 34.03467 -118.28386 2616 ft 225 kts 84°
2026-04-26 21:33 34.03655 -118.26510 2584 ft 224 kts 83°
2026-04-26 21:34 34.03841 -118.24667 2584 ft 225 kts 84°
2026-04-26 21:34 34.04028 -118.22795 2588 ft 224 kts 84°
2026-04-26 21:34 34.04186 -118.20985 2642 ft 219 kts 91°
2026-04-26 21:34 34.03788 -118.19226 2632 ft 217 kts 124°
2026-04-26 21:35 34.02723 -118.18019 2612 ft 207 kts 158°
2026-04-26 21:35 34.01413 -118.17524 2597 ft 193 kts 171°
2026-04-26 21:35 34.00162 -118.17132 2583 ft 183 kts 171°
2026-04-26 21:35 33.98937 -118.16745 2583 ft 182 kts 172°
2026-04-26 21:36 33.97705 -118.16375 2579 ft 180 kts 182°
2026-04-26 21:36 33.96893 -118.16512 2577 ft 173 kts 207°
2026-04-26 21:36 33.95890 -118.17855 2588 ft 167 kts 256°
2026-04-26 21:36 33.95949 -118.19242 2604 ft 169 kts 280°
2026-04-26 21:37 33.96227 -118.20617 2614 ft 168 kts 281°
2026-04-26 21:37 33.96517 -118.21979 2602 ft 168 kts 281°
2026-04-26 21:37 33.96806 -118.23343 2596 ft 169 kts 275°
2026-04-26 21:37 33.96800 -118.24751 2594 ft 168 kts 263°
2026-04-26 21:38 33.96652 -118.26133 2449 ft 167 kts 263°
2026-04-26 21:38 33.96512 -118.27498 2238 ft 160 kts 262°
2026-04-26 21:38 33.96381 -118.28784 2021 ft 149 kts 261°
2026-04-26 21:38 33.96256 -118.29998 1854 ft 140 kts 261°
2026-04-26 21:39 33.96145 -118.31081 1669 ft 123 kts 261°
2026-04-26 21:39 33.96041 -118.32099 1493 ft 121 kts 261°
2026-04-26 21:39 33.95936 -118.33107 1324 ft 123 kts 262°
2026-04-26 21:39 33.95829 -118.34153 1153 ft 126 kts 262°
2026-04-26 21:40 33.95723 -118.35184 974 ft 126 kts 262°
2026-04-26 21:40 33.95614 -118.36257 795 ft 129 kts 263°
2026-04-26 21:40 33.95507 -118.37287 628 ft 120 kts 262°
2026-04-26 21:40 33.95405 -118.38291 455 ft 122 kts 263°
2026-04-26 21:41 33.95306 -118.39301 259 ft 123 kts 261°
2026-04-26 21:41 33.95202 -118.40317 121 ft 119 kts 261°
2026-04-26 21:41 33.95106 -118.41222 97 ft 100 kts 263°
2026-04-26 21:41 33.95044 -118.41823 102 ft 44 kts 263°
2026-04-26 21:42 33.95018 -118.42042 101 ft 18 kts 252°
2026-04-26 21:42 33.94954 -118.42176 100 ft 19 kts 228°
2026-04-26 21:42 33.94897 -118.42244 100 ft 8 kts 220°
2026-04-26 21:42 33.94839 -118.42277 102 ft 11 kts 192°
2026-04-26 21:43 33.94753 -118.42281 101 ft 13 kts 175°
2026-04-26 21:43 33.94687 -118.42218 102 ft 14 kts 95°
2026-04-26 21:43 33.94697 -118.42092 99 ft 17 kts 83°
2026-04-26 21:43 33.94713 -118.41934 99 ft 20 kts 83°
2026-04-26 21:44 33.94730 -118.41761 99 ft 21 kts 83°
2026-04-26 21:44 33.94748 -118.41577 102 ft 23 kts 83°
2026-04-26 21:44 33.94766 -118.41429 101 ft 12 kts 73°
2026-04-26 21:44 33.94789 -118.41323 99 ft 14 kts 84°
2026-04-26 21:45 33.94802 -118.41189 103 ft 17 kts 83°
2026-04-26 21:45 33.94818 -118.41039 102 ft 19 kts 83°
2026-04-26 21:45 33.94835 -118.40877 100 ft 20 kts 83°
2026-04-26 21:45 33.94851 -118.40705 100 ft 20 kts 83°
2026-04-26 21:46 33.94851 -118.40613 99 ft 8 kts 133°
2026-04-26 21:46 33.94795 -118.40592 100 ft 9 kts 166°
2026-04-26 21:46 33.94726 -118.40577 98 ft 11 kts 172°
2026-04-26 21:46 33.94657 -118.40572 100 ft 7 kts 203°
2026-04-26 21:47 33.94643 -118.40614 98 ft 0 kts 264°
2026-04-26 21:47 33.94642 -118.40631 98 ft 3 kts 264°
2026-04-26 21:47 33.94640 -118.40648 98 ft 0 kts 263°
2026-04-26 21:49 33.94640 -118.40647 98 ft 0 kts 263°
2026-04-26 21:51 33.94640 -118.40646 98 ft 0 kts 263°
2026-04-26 21:52 33.94641 -118.40646 98 ft 0 kts 263°
2026-04-26 21:53 33.94641 -118.40645 98 ft 0 kts 263°
2026-04-26 21:55 33.94641 -118.40644 98 ft 0 kts 263°
2026-04-26 21:56 33.94641 -118.40643 98 ft 0 kts 263°
2026-04-26 21:57 33.94641 -118.40642 98 ft 0 kts 263°
2026-04-26 21:59 33.94641 -118.40641 98 ft 0 kts 263°
2026-04-26 22:01 33.94641 -118.40640 98 ft 0 kts 263°
2026-04-26 22:02 33.94641 -118.40639 98 ft 0 kts 263°
2026-04-26 22:04 33.94641 -118.40638 98 ft 0 kts 263°
2026-04-26 22:05 33.94641 -118.40637 98 ft 0 kts 263°
2026-04-26 22:07 33.94642 -118.40637 89 ft 0 kts 263°
2026-04-26 22:07 33.94642 -118.40636 89 ft 0 kts 263°
2026-04-26 22:09 33.94642 -118.40635 89 ft 0 kts 263°
2026-04-26 22:10 33.94642 -118.40634 98 ft 0 kts 263°
2026-04-26 22:12 33.94642 -118.40633 98 ft 0 kts 263°
2026-04-26 22:13 33.94642 -118.40632 97 ft 0 kts 263°
2026-04-26 22:13 33.94641 -118.40632 98 ft 0 kts 263°
2026-04-26 22:14 33.94642 -118.40632 98 ft 0 kts 264°